Flag for Central African Republic Weather past 2 weeks in Bimbo, Central African Republic

Now
82 °F

Partly sunny.


Feels Like: 89 °F
Forecast: 71 / 89 °F
Wind: 1 mph from North

Location: Bangui Airport

Current Time: Jul 28, 2014 at 9:52:13 AM

Latest Report: Jul 28, 2014 at 9:00 AM


Visibility: N/A

Pressure: 29.98 "Hg

Humidity: 79%

Dew point: 75 °F

Location of BimboLocation

Historic Weather in Bimbo — Graph

°F

Bimbo temperature yesterday

Maximum temperature yesterday: 90 °F (at 4:00 PM)
Minimum temperature yesterday: 72 °F (at 6:00 AM)
Average temperature yesterday: 80 °F

Past Weeks' High & Low Weather Summary

 TemperatureHumidityPressure
High95 °F (Jul 14, 2:00 PM)100% (Jul 13, 11:00 PM)30.04 "Hg (Jul 13, 11:00 PM)
Low70 °F (Jul 25, 2:00 AM)49% (Jul 14, 3:00 PM)29.77 "Hg (Jul 14, 5:00 PM)
Average78 °F87%29.93 "Hg
* Reported Jul 13 5:00 PM — Jul 28 8:00 AM, Bimbo, Weather by CustomWeather, © 2014

Note: Actual official high and low records may vary slightly from our data, if they occured in-between our weather recording intervals... More about our weather records

Advertising

Bimbo weather history for previous 24 hours

 ConditionsComfort  
Time TempWeatherWind HumidityBarometerVisibility
8:00 AM
Jul 28
79 °FClear.No wind84%29.95 "Hg5 mi
7:00 AM75 °FClear.No wind94%29.95 "Hg4 mi
6:00 AM73 °FPassing clouds.No wind100%29.92 "Hg4 mi
5:00 AM73 °FClear.No wind100%29.92 "Hg10 mi
4:00 AM73 °FClear.No wind100%29.89 "Hg10 mi
3:00 AM73 °FClear.No wind100%29.89 "Hg10 mi
2:00 AM73 °FClear.No wind100%29.89 "Hg10 mi
1:00 AM73 °FClear.1 mph100%29.89 "Hg10 mi
12:00 AM75 °FClear.No wind94%29.92 "Hg10 mi
11:00 PM
Jul 27
77 °FClear.No wind94%29.92 "Hg10 mi
10:00 PM77 °FClear.2 mph94%29.92 "Hg10 mi
9:00 PM79 °FClear.1 mph89%29.89 "Hg10 mi
8:00 PM77 °FClear.3 mph94%29.86 "Hg10 mi
7:00 PM81 °FClear.2 mph84%29.86 "Hg10 mi
6:00 PM82 °FSunny.2 mph74%29.83 "Hg10 mi
5:00 PM88 °FPassing clouds.2 mph62%29.83 "HgN/A
4:00 PM90 °FPassing clouds.1 mph55%29.83 "HgN/A
3:00 PM88 °FPassing clouds.6 mph62%29.83 "HgN/A
2:00 PM86 °FPartly sunny.5 mph66%29.86 "HgN/A
1:00 PM88 °FPartly sunny.3 mph66%29.89 "HgN/A
12:00 PM86 °FPartly sunny.2 mph70%29.92 "HgN/A
11:00 AM84 °FPartly sunny.5 mph70%29.95 "HgN/A
10:00 AM82 °FBroken clouds.7 mph74%29.95 "HgN/A
9:00 AM81 °FBroken clouds.6 mph84%29.98 "HgN/A
Weather by CustomWeather, © 2014

See weather overviewHow to use our weather pages